Air Quality Table

TIMESTAMP NO2 SO2 PM10 PM2.5 CO TEMP HUM AIRPRES WS WD NO
2022-08-20 01:00 0 µg/m3 1.54 µg/m3 N/A N/A N/A 26.82 °C 69.62 % 1,010.35 mbar 4.2 m/s 283.95 Deg 0 µg/m3
2022-08-20 00:00 0 µg/m3 1.93 µg/m3 N/A N/A N/A 27.04 °C 70.48 % 1,010.52 mbar 4.46 m/s 289.33 Deg 0 µg/m3
2022-08-19 23:00 0 µg/m3 1.86 µg/m3 N/A N/A N/A 27.46 °C 67.16 % 1,010.31 mbar 5.04 m/s 279.84 Deg 0 µg/m3
2022-08-19 22:00 0 µg/m3 1.93 µg/m3 N/A N/A N/A 27.77 °C 64.46 % 1,010.08 mbar 3.8 m/s 282.18 Deg 0 µg/m3
2022-08-19 21:00 0 µg/m3 1.76 µg/m3 N/A N/A N/A 28.21 °C 61.45 % 1,009.94 mbar 4.85 m/s 271.2 Deg 0 µg/m3
2022-08-19 20:00 0 µg/m3 1.63 µg/m3 N/A N/A N/A 28.4 °C 60.44 % 1,009.53 mbar 4.76 m/s 277.99 Deg 0 µg/m3
2022-08-19 19:00 0 µg/m3 1.58 µg/m3 N/A N/A N/A 29.38 °C 49.9 % 1,008.78 mbar 4.87 m/s 268.93 Deg 0 µg/m3
2022-08-19 18:00 0 µg/m3 1.71 µg/m3 N/A N/A N/A 30.32 °C 43.87 % 1,008.71 mbar 3.88 m/s 266.39 Deg 0 µg/m3
2022-08-19 17:00 0 µg/m3 1.96 µg/m3 N/A N/A N/A 29.94 °C 53.46 % 1,009.02 mbar 3.74 m/s 290.72 Deg 0 µg/m3
2022-08-19 16:00 0 µg/m3 1.75 µg/m3 N/A N/A N/A 30.4 °C 61.78 % 1,008.88 mbar 2.76 m/s 322.1 Deg 0 µg/m3
2022-08-19 15:00 0 µg/m3 2.07 µg/m3 N/A N/A N/A 30.63 °C 64.51 % 1,008.79 mbar 2.81 m/s 327.93 Deg 0 µg/m3
2022-08-19 14:00 0 µg/m3 2.01 µg/m3 N/A N/A N/A 30.96 °C 69.13 % 1,009.00 mbar 2.61 m/s 286.64 Deg 0 µg/m3
2022-08-19 13:00 0 µg/m3 2.77 µg/m3 N/A N/A N/A 30.33 °C 72.71 % 1,009.06 mbar 2.06 m/s 299.63 Deg 0 µg/m3
2022-08-19 12:00 0 µg/m3 2.11 µg/m3 N/A N/A N/A 30.62 °C 73.98 % 1,009.16 mbar 0.88 m/s 205.65 Deg 0 µg/m3
2022-08-19 11:00 0 µg/m3 1.95 µg/m3 N/A N/A N/A 30.48 °C 75.18 % 1,009.63 mbar 1.35 m/s 318.98 Deg 0 µg/m3
2022-08-19 10:00 0 µg/m3 1.03 µg/m3 N/A N/A N/A 30.21 °C 76.96 % 1,009.54 mbar 1.9 m/s 331.98 Deg 0 µg/m3
2022-08-19 09:00 0 µg/m3 2.54 µg/m3 N/A N/A N/A 29.89 °C 77.44 % 1,009.55 mbar 2.42 m/s 251.28 Deg 0 µg/m3
2022-08-19 08:00 0 µg/m3 2.94 µg/m3 N/A N/A N/A 29.58 °C 81.21 % 1,009.02 mbar 1.9 m/s 298.59 Deg 0 µg/m3
2022-08-19 07:00 0 µg/m3 3.17 µg/m3 N/A N/A N/A 28.47 °C 84.58 % 1,008.83 mbar 2.33 m/s 214.1 Deg 0 µg/m3
2022-08-19 06:00 0 µg/m3 3.52 µg/m3 N/A N/A N/A 28.44 °C 85.46 % 1,008.43 mbar 1.5 m/s 192.73 Deg 0 µg/m3
2022-08-19 05:00 0 µg/m3 3.35 µg/m3 N/A N/A N/A 28.47 °C 82.91 % 1,008.29 mbar 1.27 m/s 190.12 Deg 0 µg/m3
2022-08-19 04:00 0 µg/m3 3.11 µg/m3 N/A N/A N/A 28.82 °C 78.82 % 1,007.94 mbar 2.55 m/s 213.54 Deg 0 µg/m3
2022-08-19 03:00 0 µg/m3 2.55 µg/m3 N/A N/A N/A 29.37 °C 74.03 % 1,007.89 mbar 0.7 m/s 228.09 Deg 0 µg/m3
2022-08-19 02:00 0 µg/m3 2.72 µg/m3 N/A N/A N/A 29.84 °C 72.1 % 1,008.69 mbar 0.82 m/s 272.14 Deg 0 µg/m3
2022-08-19 01:00 0 µg/m3 1.87 µg/m3 N/A N/A N/A 29.75 °C 74.2 % 1,008.47 mbar 2.8 m/s 239.04 Deg 0 µg/m3
2022-08-19 00:00 0 µg/m3 2 µg/m3 N/A N/A N/A 30.01 °C 73.72 % 1,007.95 mbar 2.16 m/s 184.31 Deg 0 µg/m3
2022-08-18 23:00 0 µg/m3 1.73 µg/m3 N/A N/A N/A 30.16 °C 73.08 % 1,008.10 mbar 2.6 m/s 194.3 Deg 0 µg/m3
2022-08-18 22:00 0 µg/m3 2.1 µg/m3 N/A N/A N/A 30.33 °C 75.37 % 1,007.88 mbar 2.69 m/s 178.68 Deg 0 µg/m3
2022-08-18 21:00 0 µg/m3 2.44 µg/m3 N/A N/A N/A 30.91 °C 71.33 % 1,007.94 mbar 1.61 m/s 188.77 Deg 0 µg/m3
2022-08-18 20:00 0 µg/m3 1.77 µg/m3 N/A N/A N/A 30.92 °C 69.92 % 1,007.92 mbar 2.43 m/s 180.89 Deg 0 µg/m3
2022-08-18 19:00 0 µg/m3 2.42 µg/m3 N/A N/A N/A 31.67 °C 64.87 % 1,007.75 mbar 2.04 m/s 185.37 Deg 0 µg/m3
2022-08-18 18:00 0 µg/m3 2.78 µg/m3 N/A N/A N/A 33.1 °C 57.34 % 1,008.05 mbar 1.77 m/s 191.78 Deg 0 µg/m3
2022-08-18 17:00 0 µg/m3 1.81 µg/m3 N/A N/A N/A 34.08 °C 52.23 % 1,008.53 mbar 1.81 m/s 183.27 Deg 0 µg/m3
2022-08-18 16:00 0 µg/m3 1.53 µg/m3 N/A N/A N/A 34.12 °C 52.25 % 1,008.83 mbar 2.56 m/s 184.06 Deg 0 µg/m3
2022-08-18 15:00 0 µg/m3 2.51 µg/m3 N/A N/A N/A 34 °C 54.24 % 1,009.23 mbar 2.64 m/s 185.31 Deg 0 µg/m3
2022-08-18 14:00 0 µg/m3 2.59 µg/m3 N/A N/A N/A 34.2 °C 55.28 % 1,009.79 mbar 1.88 m/s 190.02 Deg 0 µg/m3
2022-08-18 13:00 0 µg/m3 2.55 µg/m3 N/A N/A N/A 34.18 °C 52.13 % 1,010.13 mbar 1.78 m/s 194.88 Deg 0 µg/m3
2022-08-18 12:00 0 µg/m3 2.03 µg/m3 N/A N/A N/A 33.97 °C 56.38 % 1,010.29 mbar 1.03 m/s 248.89 Deg 0 µg/m3
2022-08-18 11:00 0 µg/m3 2.43 µg/m3 N/A N/A N/A 34.13 °C 54.37 % 1,010.33 mbar 0.87 m/s 199.23 Deg 0 µg/m3
2022-08-18 10:00 0 µg/m3 2.63 µg/m3 N/A N/A N/A 34.05 °C 43.36 % 1,010.70 mbar 1.06 m/s 222.83 Deg 0 µg/m3
2022-08-18 09:00 0 µg/m3 2.83 µg/m3 N/A N/A N/A 32.81 °C 47.41 % 1,010.40 mbar 2.48 m/s 180.55 Deg 0 µg/m3
2022-08-18 08:00 0 µg/m3 2.97 µg/m3 N/A N/A N/A 30.83 °C 63.12 % 1,010.47 mbar 2.58 m/s 190.43 Deg 0 µg/m3
2022-08-18 07:00 0 µg/m3 2.47 µg/m3 N/A N/A N/A 29.21 °C 81.11 % 1,010.19 mbar 2.59 m/s 200.93 Deg 0 µg/m3
2022-08-18 06:00 0 µg/m3 2.4 µg/m3 N/A N/A N/A 28.69 °C 87.63 % 1,009.59 mbar 2.33 m/s 194.99 Deg 0 µg/m3
2022-08-18 05:00 0 µg/m3 1.59 µg/m3 N/A N/A N/A 28.75 °C 87.34 % 1,009.35 mbar 1.56 m/s 200.19 Deg 0 µg/m3
2022-08-18 04:00 0 µg/m3 2.02 µg/m3 N/A N/A N/A 28.93 °C 86.19 % 1,009.65 mbar 1.23 m/s 188.99 Deg 0 µg/m3
2022-08-18 03:00 0 µg/m3 2.52 µg/m3 N/A N/A N/A 29.15 °C 87.05 % 1,009.64 mbar 0.69 m/s 193.85 Deg 0 µg/m3

It is to be noted that the data is provisional and subject to quality assurance procedures. For validated data kindly refer your request to contact.air@era.org.mt